Home   Weather   Kassel   Past weeks

Flag for Germany Past Weather in Kassel, Hesse, Germany — Yesterday and Last 2 Weeks

Now
66 °F

Partly sunny.


Feels Like: 66 °F
Forecast: 60 / 71 °F
Wind: 13 mph from Southwest

Location: Kassel / Calden

Current Time: Jun 24, 2017 at 12:29:02 pm

Latest Report: Jun 24, 2017 at 11:50 am


Visibility: N/A

Pressure: 29.98 "Hg

Humidity: 60%

Dew Point: 52 °F

Location of KasselLocation

Past Weather in Kassel — Graph

°F

Kassel Temperature Yesterday

Maximum temperature yesterday: 75 °F (at 4:50 pm)
Minimum temperature yesterday: 63 °F (at 1:50 am)
Average temperature yesterday: 69 °F

High & Low Weather Summary for the Past Weeks

 TemperatureHumidityPressure
High91 °F (Jun 22, 2:50 pm)100% (Jun 9, 3:20 pm)30.30 "Hg (Jun 9, 3:20 pm)
Low48 °F (Jun 14, 2:50 am)35% (Jun 19, 4:50 pm)29.77 "Hg (Jun 22, 9:50 pm)
Average68 °F66%30.06 "Hg
* Reported Jun 9 11:20 am — Jun 24 11:20 am, Kassel. Weather by CustomWeather, © 2017

Note: Actual official high and low records may vary slightly from our data, if they occured in-between our weather recording intervals... More about our weather records

Advertising

Kassel Weather History for the Previous 24 Hours

Scroll right to see more
 ConditionsComfort  
Time TempWeatherWind HumidityBarometerVisibility
11:20 am
Sat, Jun 24
66 °FPartly sunny.14 mph64%29.98 "HgN/A
10:20 am64 °FPartly sunny.9 mph64%29.98 "HgN/A
9:50 am64 °FPartly sunny.8 mph68%29.98 "HgN/A
9:20 am63 °FScattered clouds.10 mph64%29.98 "HgN/A
8:50 am63 °FPassing clouds.8 mph68%29.98 "HgN/A
8:20 am63 °FPassing clouds.7 mph73%29.98 "HgN/A
7:50 am61 °FPassing clouds.7 mph72%29.98 "HgN/A
7:20 am61 °FPassing clouds.6 mph77%29.98 "HgN/A
9:20 pm
Fri, Jun 23
68 °FPassing clouds.5 mph69%29.98 "HgN/A
8:20 pm72 °FPassing clouds.8 mph65%29.98 "HgN/A
7:50 pm73 °FPassing clouds.7 mph61%29.98 "HgN/A
7:20 pm73 °FPassing clouds.7 mph61%29.98 "HgN/A
6:50 pm72 °FPassing clouds.8 mph65%29.98 "HgN/A
6:20 pm73 °FPassing clouds.12 mph53%29.98 "HgN/A
5:50 pm75 °FScattered clouds.9 mph50%29.98 "HgN/A
5:20 pm73 °FScattered clouds.12 mph53%29.98 "HgN/A
4:50 pm75 °FScattered clouds.14 mph54%29.98 "HgN/A
4:20 pm73 °FBroken clouds.14 mph57%29.98 "HgN/A
3:50 pm73 °FBroken clouds.10 mph57%29.98 "HgN/A
3:20 pm73 °FBroken clouds.14 mph57%29.98 "HgN/A
2:50 pm72 °FBroken clouds.14 mph57%29.98 "HgN/A
2:20 pm72 °FBroken clouds.16 mph57%29.98 "HgN/A
1:50 pm72 °FBroken clouds.14 mph57%29.98 "HgN/A
1:20 pm72 °FBroken clouds.14 mph57%29.98 "HgN/A
12:50 pm70 °FBroken clouds.9 mph69%29.98 "HgN/A
12:20 pm70 °FBroken clouds.12 mph69%29.98 "HgN/A
Weather by CustomWeather, © 2017

See weather overviewHow to use our weather pages